TimePDT,TemperatureF,Dew PointF,Humidity,Sea Level PressureIn,VisibilityMPH,Wind Direction,Wind SpeedMPH,Gust SpeedMPH,PrecipitationIn,Events,Conditions,WindDirDegrees,DateUTC
12:15 AM,60.8,21.2,22,30.16,10.0,SW,20.7,26.5,N/A,,Clear,220,2013-06-13 07:15:00
12:35 AM,60.8,21.2,22,30.16,10.0,SSW,12.7,26.5,N/A,,Clear,210,2013-06-13 07:35:00
12:55 AM,60.8,21.2,22,30.16,10.0,SSW,18.4,27.6,N/A,,Clear,200,2013-06-13 07:55:00
1:15 AM,59.0,21.2,23,30.16,10.0,SSW,12.7,24.2,N/A,,Clear,210,2013-06-13 08:15:00
1:35 AM,59.0,21.2,23,30.15,10.0,West,10.4,23.0,N/A,,Clear,270,2013-06-13 08:35:00
1:55 AM,59.0,23.0,25,30.14,10.0,SSW,24.2,33.4,N/A,,Clear,200,2013-06-13 08:55:00
2:15 AM,59.0,23.0,25,30.13,10.0,South,24.2,35.7,N/A,,Clear,190,2013-06-13 09:15:00
2:35 AM,59.0,23.0,25,30.13,10.0,SSW,24.2,38.0,N/A,,Clear,200,2013-06-13 09:35:00
2:55 AM,59.0,23.0,25,30.13,10.0,South,13.8,33.4,N/A,,Clear,180,2013-06-13 09:55:00
3:15 AM,55.4,24.8,31,30.14,10.0,SE,8.1,20.7,N/A,,Clear,130,2013-06-13 10:15:00
3:35 AM,53.6,26.6,35,30.13,10.0,East,13.8,20.7,N/A,,Clear,90,2013-06-13 10:35:00
3:55 AM,50.0,26.6,40,30.14,10.0,South,8.1,-,N/A,,Clear,190,2013-06-13 10:55:00
4:15 AM,53.6,24.8,33,30.13,10.0,ENE,3.5,9.2,N/A,,Clear,60,2013-06-13 11:15:00
4:35 AM,57.2,14.0,18,30.12,10.0,SSW,12.7,19.6,N/A,,Clear,210,2013-06-13 11:35:00
4:55 AM,55.4,17.6,23,30.13,10.0,Calm,Calm,-,N/A,,Clear,0,2013-06-13 11:55:00
5:15 AM,51.8,19.4,28,30.12,10.0,NW,4.6,-,N/A,,Clear,320,2013-06-13 12:15:00
5:35 AM,50.0,17.6,28,30.13,10.0,WNW,4.6,-,N/A,,Clear,300,2013-06-13 12:35:00
5:55 AM,50.0,15.8,26,30.13,10.0,WSW,3.5,-,N/A,,Clear,240,2013-06-13 12:55:00
6:15 AM,51.8,15.8,24,30.12,10.0,NW,9.2,-,N/A,,Clear,310,2013-06-13 13:15:00
6:35 AM,53.6,19.4,26,30.13,10.0,ESE,3.5,-,N/A,,Clear,110,2013-06-13 13:35:00
6:55 AM,53.6,23.0,30,30.13,10.0,SSE,10.4,-,N/A,,Clear,160,2013-06-13 13:55:00
7:15 AM,57.2,19.4,23,30.12,10.0,NE,5.8,-,N/A,,Clear,50,2013-06-13 14:15:00
7:35 AM,59.0,17.6,20,30.13,10.0,SE,8.1,17.3,N/A,,Clear,130,2013-06-13 14:35:00
7:55 AM,60.8,23.0,23,30.12,10.0,Calm,Calm,-,N/A,,Clear,0,2013-06-13 14:55:00
8:15 AM,62.6,14.0,15,30.12,10.0,ESE,5.8,-,N/A,,Clear,110,2013-06-13 15:15:00
8:35 AM,64.4,8.6,11,30.13,10.0,SW,3.5,-,N/A,,Clear,230,2013-06-13 15:35:00
8:55 AM,66.2,-2.2,6,30.12,10.0,ESE,10.4,26.5,N/A,,Clear,120,2013-06-13 15:55:00
9:15 AM,66.2,1.4,8,30.13,10.0,SSW,24.2,46.0,N/A,,Clear,210,2013-06-13 16:15:00
9:35 AM,66.2,3.2,8,30.13,10.0,South,13.8,31.1,N/A,,Clear,170,2013-06-13 16:35:00
9:55 AM,66.2,5.0,9,30.14,10.0,South,9.2,34.5,N/A,,Clear,190,2013-06-13 16:55:00
10:15 AM,68.0,6.8,9,30.14,10.0,South,26.5,38.0,N/A,,Clear,170,2013-06-13 17:15:00
10:35 AM,68.0,6.8,9,30.14,10.0,WSW,15.0,34.5,N/A,,Clear,250,2013-06-13 17:35:00
10:55 AM,69.8,10.4,10,30.15,10.0,South,8.1,34.5,N/A,,Clear,190,2013-06-13 17:55:00
11:15 AM,69.8,10.4,10,30.16,10.0,SW,8.1,27.6,N/A,,Clear,220,2013-06-13 18:15:00
11:35 AM,69.8,8.6,9,30.16,10.0,SW,24.2,40.3,N/A,,Clear,230,2013-06-13 18:35:00
11:55 AM,69.8,10.4,10,30.16,10.0,South,15.0,33.4,N/A,,Clear,180,2013-06-13 18:55:00
12:15 PM,69.8,8.6,9,30.16,10.0,SSW,17.3,38.0,N/A,,Clear,210,2013-06-13 19:15:00
12:35 PM,71.6,8.6,9,30.17,10.0,SSW,10.4,36.8,N/A,,Clear,210,2013-06-13 19:35:00
12:55 PM,71.6,8.6,9,30.18,10.0,SW,6.9,39.1,N/A,,Clear,220,2013-06-13 19:55:00
1:15 PM,71.6,10.4,9,30.18,10.0,SW,13.8,23.0,N/A,,Clear,230,2013-06-13 20:15:00
1:35 PM,71.6,1.4,6,30.19,10.0,West,8.1,24.2,N/A,,Clear,270,2013-06-13 20:35:00
1:55 PM,73.4,8.6,8,30.20,10.0,WNW,29.9,36.8,N/A,,Clear,290,2013-06-13 20:55:00
2:15 PM,71.6,8.6,9,30.20,10.0,WNW,24.2,31.1,N/A,,Clear,300,2013-06-13 21:15:00
2:35 PM,71.6,8.6,9,30.19,10.0,WNW,19.6,31.1,N/A,,Clear,290,2013-06-13 21:35:00
2:55 PM,71.6,6.8,8,30.20,10.0,WNW,24.2,31.1,N/A,,Clear,290,2013-06-13 21:55:00
3:15 PM,71.6,6.8,8,30.20,10.0,NW,18.4,32.2,N/A,,Clear,310,2013-06-13 22:15:00
3:35 PM,71.6,8.6,9,30.19,10.0,WNW,24.2,33.4,N/A,,Clear,300,2013-06-13 22:35:00
3:55 PM,71.6,8.6,9,30.19,10.0,WNW,21.9,35.7,N/A,,Clear,300,2013-06-13 22:55:00
4:15 PM,71.6,12.2,10,30.19,10.0,WNW,18.4,28.8,N/A,,Clear,290,2013-06-13 23:15:00
4:35 PM,71.6,12.2,10,30.19,10.0,WNW,19.6,24.2,N/A,,Clear,300,2013-06-13 23:35:00
4:55 PM,69.8,14.0,12,30.18,10.0,WNW,19.6,31.1,N/A,,Clear,300,2013-06-13 23:55:00
5:15 PM,69.8,14.0,12,30.18,10.0,WNW,20.7,28.8,N/A,,Clear,290,2013-06-14 00:15:00
5:35 PM,68.0,14.0,12,30.18,10.0,NW,19.6,27.6,N/A,,Clear,310,2013-06-14 00:35:00
5:55 PM,68.0,14.0,12,30.19,10.0,WNW,21.9,27.6,N/A,,Clear,290,2013-06-14 00:55:00
6:15 PM,68.0,14.0,12,30.19,10.0,WNW,20.7,25.3,N/A,,Clear,290,2013-06-14 01:15:00
6:35 PM,68.0,15.8,13,30.19,10.0,WNW,16.1,24.2,N/A,,Clear,300,2013-06-14 01:35:00
6:55 PM,66.2,17.6,15,30.19,10.0,WNW,19.6,26.5,N/A,,Clear,290,2013-06-14 01:55:00
7:15 PM,64.4,17.6,16,30.19,10.0,WNW,17.3,25.3,N/A,,Clear,290,2013-06-14 02:15:00
7:35 PM,64.4,19.4,18,30.20,10.0,WNW,16.1,23.0,N/A,,Clear,290,2013-06-14 02:35:00
7:55 PM,62.6,21.2,20,30.20,10.0,WNW,18.4,23.0,N/A,,Clear,290,2013-06-14 02:55:00
8:15 PM,59.0,23.0,25,30.20,10.0,West,18.4,23.0,N/A,,Clear,280,2013-06-14 03:15:00
8:35 PM,55.4,23.0,29,30.20,10.0,West,6.9,-,N/A,,Clear,280,2013-06-14 03:35:00
8:55 PM,55.4,21.2,26,30.20,10.0,West,8.1,-,N/A,,Clear,270,2013-06-14 03:55:00
9:15 PM,53.6,21.2,28,30.20,10.0,WNW,6.9,-,N/A,,Clear,290,2013-06-14 04:15:00
9:35 PM,51.8,19.4,28,30.22,10.0,NW,6.9,-,N/A,,Clear,310,2013-06-14 04:35:00
9:55 PM,51.8,19.4,28,30.22,10.0,North,5.8,-,N/A,,Clear,350,2013-06-14 04:55:00
10:15 PM,51.8,21.2,30,30.22,10.0,Calm,Calm,-,N/A,,Clear,0,2013-06-14 05:15:00
10:35 PM,51.8,21.2,30,30.22,10.0,WSW,6.9,-,N/A,,Clear,250,2013-06-14 05:35:00
10:55 PM,51.8,19.4,28,30.22,10.0,West,5.8,-,N/A,,Clear,260,2013-06-14 05:55:00
11:15 PM,48.2,19.4,32,30.22,10.0,West,8.1,-,N/A,,Clear,280,2013-06-14 06:15:00
11:35 PM,48.2,19.4,32,30.22,10.0,West,12.7,-,N/A,,Clear,270,2013-06-14 06:35:00
11:55 PM,48.2,19.4,32,30.22,10.0,West,15.0,-,N/A,,Clear,280,2013-06-14 06:55:00